Regional Weather Roundup
Issued by NWS

Home | Current Version | Previous Version | Graphics & Text | Print | Product List | Glossary On
Versions: 1 2 3 4 5 6 7 8 9 10 11 12 13 14 15 16 17 18 19 20 21 22 23 24 25 26 27 28 29 30 31 32 33 34 35 36 37 38 39 40 41 42 43 44 45 46 47 48 49 50
218
ASUS43 KOAX 061110
RWRNE

WEATHER ROUNDUP FOR NEBRASKA
NATIONAL WEATHER SERVICE OMAHA NE
500 AM CST SAT FEB 06 2016

NOTES: SATELLITE DATA IS BEING USED TO AUGMENT CLOUD COVER ABOVE
       12000 FEET.
       "FAIR" INDICATES FEW OR NO CLOUDS BELOW 12,000 FEET WITH NO
       SIGNIFICANT WEATHER AND/OR OBSTRUCTIONS TO VISIBILITY.

  * THESE STATIONS DO NOT REPORT WEATHER SUCH AS RAIN...SNOW OR FOG.

NEZ001>004-019>022-054>056-061200-
NEBRASKA PANHANDLE

CITY           SKY/WX    TMP DP  RH WIND       PRES   REMARKS
SCOTTSBLUFF    CLEAR     17  11  77 NW9       30.18F WCI   6
ALLIANCE       CLOUDY    13   9  84 W10       30.14F WCI   0
CHADRON        CLOUDY    19  13  77 SW9       30.15F WCI   8
KIMBALL        CLOUDY    24  14  66 W16       30.18F WCI  10
SIDNEY         CLOUDY    17   9  70 W12       30.20F WCI   4
$$

NEZ057>060-069>072-079>082-061200-
SOUTHWEST NEBRASKA

CITY           SKY/WX    TMP DP  RH WIND       PRES   REMARKS
NORTH PLATTE   CLOUDY    12   7  80 NW5       30.22S WCI   4
IMPERIAL       CLOUDY    18   9  68 W10       30.22F WCI   6
LEXINGTON      CLOUDY    11   8  85 W5        30.22F FOG     WCI   3
MCCOOK         CLOUDY    15   9  76 W13       30.26F WCI   1
OGALLALA       CLOUDY    18   9  68 W9        30.22S WCI   6
$$

NEZ005>010-023>029-035>040-094-061200-
NORTH CENTRAL NEBRASKA

CITY           SKY/WX    TMP DP  RH WIND       PRES   REMARKS
VALENTINE      CLOUDY    21  16  81 W9        30.12F WCI  11
AINSWORTH      CLEAR     23  18  80 SW9       30.12F WCI  13
BROKEN BOW     CLOUDY    20  16  84 CALM      30.18F
O`NEILL        CLOUDY    19  17  91 SW8       30.15F WCI   9
ORD            FOG       13  10  88 CALM      30.18F VSB 3/4
THEDFORD       CLOUDY    22  16  78 W3        30.17S
$$

NEZ041-046>049-061>064-073>077-083>087-061200-
SOUTH CENTRAL NEBRASKA

CITY           SKY/WX    TMP DP  RH WIND       PRES   REMARKS
GRAND ISLAND   PTCLDY    16  13  88 SW7       30.23F WCI   6
AURORA         PTCLDY    18  17  96 W5        30.22F WCI  11
HASTINGS       PTCLDY    21  17  84 SW6       30.23F WCI  13
HEBRON         CLEAR     19  18  96 CALM      30.27F
HOLDREGE       CLOUDY    20  18  92 SW5       30.23F WCI  13
KEARNEY *      CLOUDY    18 -26  13 W5        30.22F WCI  11
YORK           CLOUDY    18  18 100 W8        30.24F WCI   7
$$

NEZ011>018-030>034-042>045-061200-
NORTHEAST NEBRASKA

CITY           SKY/WX    TMP DP  RH WIND       PRES   REMARKS
NORFOLK        CLOUDY    16  13  88 CALM      30.20F
ALBION         CLOUDY    23  20  89 W5        30.20F WCI  17
BLAIR          CLOUDY    29  28  94 W6        30.23S WCI  23
COLUMBUS *       N/A     14   3  62 CALM      30.23F VSB 1/2
FREMONT        FOG       17  15  93 CALM      30.25S VSB 1/4
TEKAMAH        PTCLDY    26  24  92 SW3       30.25S
WAYNE          CLEAR     15  13  92 S3        30.21F
$$

NEZ050>053-065>068-078-088>093-061200-
SOUTHEAST NEBRASKA

CITY           SKY/WX    TMP DP  RH WIND       PRES   REMARKS
LINCOLN        CLEAR     22  20  92 SW3       30.27F FOG
OMAHA EPPLEY   CLOUDY    31  28  89 NW9       30.26R WCI  23
BEATRICE       CLEAR     27  26  96 W8        30.27S WCI  19
FALLS CITY     CLEAR     27  25  92 W8        30.26S WCI  19
NEBRASKA CITY  CLOUDY    32  32 100 W6        30.26S WCI  26
PLATTSMOUTH    FOG       28  27  97 W6        30.25R VSB 1/4 WCI  21
$$

NEZ044-045-051>053-067-061200-
OMAHA AREA

CITY           SKY/WX    TMP DP  RH WIND       PRES   REMARKS
OMAHA EPPLEY   CLOUDY    31  28  89 NW9       30.26R WCI  23
BLAIR          CLOUDY    29  28  94 W6        30.23S WCI  23
FREMONT        FOG       17  15  93 CALM      30.25S VSB 1/4
MILLARD        PTCLDY    29  28  93 CALM      30.26R
OFFUTT AFB     CLOUDY    30  30  99 W2        30.25R
PLATTSMOUTH    FOG       28  27  97 W6        30.25R VSB 1/4 WCI  21
WAHOO          FAIR      26  25  96 W3        30.25S
$$




USA.gov is the U.S. government's official web portal to all federal, state and local government web resources and services.